SCP
-0 0 0 0 -0 -0 -0 -0 0 -0 -0 0 0 0 0 0 0 0 0 0 0 0 0 0 0 0 0 0 0 0 0 0 0 0 0 0 0 0 0 0 0 0 0 0 0 0 0 0 0 0 0 0 0 0
-0 0 0 0 -0 -0 -0 -0 -0 -0 -0 0 0 0 0 0 0 0 0 0 0 0 0 0 0 0 0 0 0 0 0 0 0 0 0 0 0 0 0 0 0 0 0 0 0 0 0 0 0 0 0 0 0 0
-0 -0 -0 -0 -0 -0 0 -0 -0 0 0 0 0 0 0 0 0 0 0 0 0 0 0 0 0 0 0 0 0 0 0 0 0 0 0 0 0 0 0 0 0 0 0 0 0 0 0 0 0 0 0 0 0 0
-0 -0 -0 -0 -0 -0 -0 0 0 0 0 0 0 0 0 0 0 0 0 0 0 0 0 0 0 0 0 0 0 0 0 0 0 0 0 0 0 0 0 0 0 0 0 0 0 0 0 0 0 0 0 0 0 0
-0 0 -0 0 0 0 0 0 0 0 0 0 0 0 0 0 0 0 0 0 0 0 0 0 0 0 0 0 0 0 0 0 0 0 0 0 0 0 0 0 0 0 0 0 0 0 0 0 0 0 0 0 0 0
-0 -0 0 0 0 0 0 -0 0 0 -0 0 0 0 0 0 0 0 0 0 0 0 0 0 0 0 0 0 0 0 0 0 0 0 0 0 0 0 0 0 0 0 0 0 0 0 0 0 0 0 0 0 0 0
-0 -0 -0 0 0 0 0 -0 0 0 0 0 0 0 0 0 0 0 0 0 0 0 0 0 0 0 0 0 0 0 0 0 0 0 0 0 0 0 0 0 0 0 0 0 0 0 0 0 0 0 0 0 0 0
-0 -0 -0 -0 -0 0 0 0 0 0 0 0 0 0 0 0 0 0 0 0 0 0 0 0 0 0 0 0 0 0 0 0 0 0 0 0 0 0 0 0 0 0 0 0 0 0 0 0 0 0 0 0 0 0
-0 -0 -0 -0 -0 -0 -0 0 0 0 0 -0 0 0 0 0 0 0 0 0 0 0 0 0 0 0 0 0 0 0 0 0 0 0 0 0 0 0 0 0 0 0 0 0 0 0 0 0 0 0 0 0 0 0
-0 -0 -0 -0 -0 -0 -0 -0 -0 0 0 0 0 0 0 0 0 0 0 0 0 0 0 0 0 0 0 0 0 0 0 0 0 0 0 0 0 0 0 0 0 0 0 0 0 0 0 0 0 0 0 0 0 0
-0 -0 -0 -0 -0 -0 -0 -0 -0 0 0 0 0 0 0 0 0 0 0 0 0 0 0 0 0 0 0 0 0 0 0 0 0 0 0 0 0 0 0 0 0 0 0 0 0 0 0 0 0 0 0 0 0 0
-0 -0 -0 -0 -0 -0 -0 -0 -0 0 0 0 0 0 0 0 0 0 0 0 0 0 0 0 0 0 0 0 0 0 0 0 0 0 0 0 0 0 0 0 0 0 0 0 0 0 0 0 0 0 0 0 0 0
-0 -0 -0 -0 -0 -0 -0 -0 -0 -0 0 0 0 0 0 0 0 0 0 0 0 0 0 0 0 0 0 0 0 0 0 0 0 0 0 0 0 0 0 0 0 0 0 0 0 0 0 0 0 0 0 0 0 0
0 0 -0 -0 -0 -0 -0 -0 -0 0 0 0 -0 -0 0 0 0 0 0 0 0 0 0 0 0 0 0 0 0 0 0 0 0 0 0 0 0 0 0 0 0 0 0 0 0 0 0 0 0 0 0 0 0 0
-0 0 -0 -0 0 0 0 0 0 0 0 0 0 0 0 0 0 0 0 0 0 0 0 0 0 0 0 0 0 0 0 0 0 0 0 0 0 0 0 0 0 0 0 0 0 0 0 0 0 0 0 0 0 0
-0 0 -0 -0 -0 0 0 0 0 0 0 0 0 0 0 0 0 0 0 0 0 0 0 0 0 0 0 0 0 0 0 0 0 0 0 0 0 0 0 0 0 0 0 0 0 0 0 0 0 0 0 0 0 0
0 0 -0 -0 -0 -0 -0 0 0 0 0 0 0 0 0 0 0 0 0 0 0 0 0 0 0 0 0 0 0 0 0 0 0 0 0 0 0 0 0 0 0 0 0 0 0 0 0 0 0 0 0 0 0 0
0 0 0 0 0 0 0 -0 0 0 0 0 0 0 0 0 0 0 0 0 0 0 0 0 0 0 0 0 0 0 0 0 0 0 0 0 0 0 0 0 0 0 0 0 0 0 0 0 0 0 0 0 0 0
0 0 0 0 0 0 0 0 0 0 0 0 0 0 0 0 0 0 0 0 0 0 0 0 0 0 0 0 0 0 0 0 0 0 0 0 0 0 0 0 0 0 0 0 0 0 0 0 0 0 0 0 0 0
0 0 0 0 0 0 0 0 0 0 0 0 0 0 0 -0 0 0 0 0 0 0 0 0 0 0 0 0 0 0 0 0 0 0 0 0 0 0 0 0 0 0 0 0 0 0 0 0 0 0 0 0 0 0
0 0 0 0 0 0 0 0 0 0 0 0 0 0 0 0 0 -0 -0 -0 -0 -0 -0 0 0 0 -0 -0 -0 -0 0 0 0 0 0 0 0 0 0 0 0 0 0 0 0 0 0 0 0 0 0 0 0 0
0 0 0 0 0 0 0 0 0 0 0 0 0 0 0 0 0 0 0 0 0 0 0 0 0 0 -0 -0 -0 -0 0 0 0 0 0 0 0 0 0 0 0 0 0 0 0 0 0 0 0 0 0 0 0 0
0 0 0 0 0 0 0 0 0 0 0 0 0 0 0 0 0 0 0 0 0 0 0 0 0 0 0 0 0 0 0 0 0 0 0 0 0 0 0 0 0 0 0 0 0 0 0 0 0 0 0 0 0 0
-0 0 0 0 0 0 0 0 0 0 0 0 0 0 0 0 0 0 0 0 0 0 0 0 0 0 0 0 0 0 0 0 0 0 0 0 0 0 0 0 0 0 0 0 0 0 0 0 0 0 0 0 0 0
0 0 0 0 0 0 0 0 0 0 0 0 0 0 0 0 0 0 0 0 0 0 0 0 0 0 0 0 0 0 0 0 0 0 0 0 0 0 0 0 0 0 0 0 0 0 0 0 0 0 0 0 0 0
0 0 0 0 0 0 0 0 0 0 0 0 0 0 0 0 0 0 0 0 0 0 0 0 0 0 0 0 0 0 0 0 0 0 0 0 0 0 0 0 0 0 0 0 0 0 0 0 0 0 0 0 0 0
0 0 0 0 0 0 0 0 0 0 0 0 0 0 0 0 0 0 0 0 0 0 0 0 0 0 0 0 0 0 0 0 0 0 0 0 0 0 0 0 0 0 0 0 0 0 0 0 0 0 0 0 0 0
0 0 0 0 0 0 0 0 0 0 0 0 0 0 0 0 0 0 0 0 0 0 0 0 0 0 0 0 0 0 0 0 0 0 0 0 0 0 0 0 0 0 0 0 0 0 0 0 0 0 0 0 0 0
0 0 0 0 0 0 0 0 0 0 0 0 0 0 0 0 0 0 0 0 0 0 0 0 0 0 0 0 0 0 0 0 0 0 0 0 0 0 0 0 0 0 0 0 0 0 0 0 0 0 0 0 0 0
0 0 0 0 0 0 0 0 0 0 0 0 0 0 0 0 0 0 0 0 0 0 0 0 0 0 0 0 0 0 0 0 0 0 0 0 0 0 0 0 0 0 0 0 0 0 0 0 0 0 0 0 0 0
0 0 0 0 0 0 0 0 0 0 0 0 0 0 0 0 0 0 0 0 0 0 0 0 0 0 0 0 0 0 0 0 0 0 0 0 0 0 0 0 0 0 0 0 0 0 0 0 0 0 0 0 0 0
0 0 0 0 0 0 0 0 0 0 0 0 0 0 0 0 0 0 0 0 0 0 0 0 0 0 0 0 0 0 0 0 0 0 0 0 0 0 0 0 0 0 0 0 0 0 0 0 0 0 0 0 0 0
0 0 0 0 0 0 0 0 0 0 0 0 0 0 0 0 0 0 0 0 0 0 0 0 0 0 0 0 0 0 0 0 0 0 0 0 0 0 0 0 0 0 0 0 0 0 0 0 0 0 0 0 0 0
Wind_Speed_500mb
104 80 75 63 63 59 63 66 44 52 74 93 104 106 99 108 94 73 69 56 62 19 19 32 32 16 22 25 18 32 17 1 5 6 6 5 7 9 8 6 15 12 14 7 6 7 12 20 6 6 8 22 15 15
88 107 87 85 86 74 103 105 107 104 84 94 86 93 113 110 89 67 65 63 64 40 27 41 30 30 21 22 45 36 6 11 18 8 3 7 5 5 11 7 4 6 7 10 4 4 14 33 41 25 17 15 15 15
84 93 95 80 81 91 85 75 107 105 108 111 96 95 91 105 74 53 63 63 61 46 34 31 29 27 24 33 58 13 13 14 9 12 8 4 9 4 6 4 9 3 8 8 10 9 17 26 26 21 16 13 14 19
123 69 70 76 63 56 62 67 71 70 76 71 76 76 76 77 70 63 65 59 59 34 10 15 21 32 28 35 42 21 33 26 33 17 9 6 7 0 2 7 7 2 6 11 11 16 25 19 14 13 11 13 21 27
98 108 82 43 57 51 55 45 36 34 48 59 57 52 58 77 76 79 64 54 62 24 12 13 40 38 35 36 32 22 26 35 12 9 9 6 7 6 3 6 6 10 3 5 6 14 10 17 4 11 17 25 28 34
80 80 86 90 73 29 36 26 32 39 26 21 26 29 25 40 65 57 20 26 38 75 24 6 14 38 43 36 45 48 35 19 18 16 9 8 5 4 5 6 6 11 14 12 13 13 9 5 3 12 22 26 28 31
95 74 67 67 72 68 59 26 17 20 11 14 25 27 21 35 48 12 18 32 42 33 16 7 4 16 25 25 32 37 27 22 17 12 9 6 3 8 4 6 21 15 12 11 14 15 14 9 1 18 23 27 30 29
83 89 80 60 55 60 57 55 53 61 53 47 43 50 48 39 56 54 52 38 37 27 19 7 4 6 21 16 10 17 11 15 25 10 7 7 4 5 7 15 22 16 13 15 11 13 12 8 11 15 20 22 24 30
71 74 76 79 64 45 51 50 47 57 58 63 59 65 59 47 18 40 45 35 26 19 12 10 4 5 10 10 10 10 11 7 10 6 6 6 5 6 2 27 21 18 18 17 9 15 14 12 15 14 17 19 24 28
59 60 63 65 67 62 32 32 42 53 54 20 11 12 13 27 54 41 13 5 13 20 19 7 11 4 12 6 10 7 13 5 5 5 10 7 3 8 14 19 17 14 12 13 17 14 13 15 16 15 18 20 21 23
59 54 51 52 55 58 53 20 21 25 12 7 11 17 39 14 3 8 13 16 17 9 18 12 21 6 16 6 5 12 3 4 6 6 5 2 2 10 22 17 15 13 12 13 13 13 13 12 13 14 14 16 18 19
62 54 46 44 45 46 52 46 20 5 12 20 28 28 11 12 11 15 6 7 14 5 16 9 14 11 11 11 8 7 5 4 3 5 6 2 4 19 29 21 17 15 13 14 14 13 12 12 13 14 15 15 17 18
62 57 47 41 36 34 37 40 34 24 18 14 10 13 22 23 25 14 13 8 7 19 17 17 5 6 6 9 10 6 10 2 5 3 6 5 20 31 25 22 19 17 15 14 14 13 12 10 9 9 9 11 13 13
54 60 46 37 33 27 26 29 31 24 13 21 21 18 11 11 10 5 5 5 6 9 12 12 7 5 7 9 2 10 4 3 5 3 7 4 31 29 24 21 19 18 17 15 14 12 10 8 6 5 6 7 7 8
51 55 50 38 35 30 23 22 23 16 19 19 18 13 9 5 4 3 5 4 7 7 10 5 2 2 5 8 5 7 7 0 7 7 5 16 31 28 25 22 20 19 18 15 11 10 9 6 3 2 3 3 6 9
58 59 66 57 33 24 21 14 16 30 19 16 20 12 7 2 1 7 9 6 15 9 5 3 1 8 7 4 6 1 7 6 5 1 9 29 33 30 28 25 21 18 15 14 12 9 7 6 4 5 6 6 9 12
60 64 57 45 46 24 13 27 23 25 18 13 14 18 17 14 8 5 7 15 16 11 3 5 10 5 2 6 4 3 6 6 8 15 26 25 23 25 26 25 23 20 17 14 12 11 9 7 7 7 9 11 13 16
59 53 52 35 22 51 55 37 21 21 21 21 11 8 17 12 8 8 10 20 8 4 6 4 6 5 4 7 5 5 7 13 15 22 24 29 30 28 24 21 20 17 15 14 13 12 10 10 11 12 14 15 16 18
58 51 42 45 47 39 20 25 24 17 17 10 12 12 14 11 16 15 15 15 16 12 9 4 7 2 3 3 4 10 15 19 23 26 27 27 25 23 22 21 20 18 16 15 14 13 13 13 14 16 18 20 20 22
43 46 39 29 28 22 17 19 16 17 9 8 8 8 7 7 8 11 14 16 9 5 7 3 5 4 6 6 10 11 17 19 25 27 25 25 24 24 23 20 17 18 18 17 16 15 17 17 18 20 22 24 25 25
25 31 45 54 60 34 19 13 17 14 11 8 6 6 6 6 6 10 10 13 3 3 4 6 7 4 7 11 14 21 20 20 22 19 17 24 24 23 23 21 21 22 20 19 19 19 19 20 23 24 26 27 29 29
19 25 23 27 21 16 20 22 13 10 6 7 5 4 3 1 5 6 21 3 6 5 7 6 7 9 11 12 15 16 18 21 22 20 18 18 22 23 23 21 24 22 23 22 23 22 24 25 26 28 29 30 32 32
11 14 14 17 11 13 8 9 6 7 7 5 3 4 4 6 9 17 7 6 7 11 11 12 12 12 12 13 15 17 19 21 22 23 22 21 22 22 22 24 25 27 27 23 26 28 28 29 30 32 33 33 34 34
13 9 10 11 15 7 7 7 7 6 5 7 5 5 6 9 14 5 5 8 14 16 24 22 21 20 20 21 21 18 20 22 24 26 26 26 25 22 24 26 30 30 29 28 32 34 34 33 35 36 36 35 34 35
5 14 9 10 10 6 8 6 7 7 2 2 3 4 4 5 3 3 6 9 22 24 25 29 30 29 27 24 20 20 25 25 25 24 24 28 27 29 32 32 32 30 31 36 35 34 33 36 37 36 36 35 34 35
11 10 7 2 3 6 7 5 4 8 5 1 7 1 1 4 2 11 8 12 19 18 23 25 24 27 29 27 25 24 23 25 29 34 30 32 33 33 31 33 33 31 33 33 34 35 34 35 35 35 35 34 35 37
6 1 6 7 6 9 9 7 6 4 4 8 5 4 4 1 10 10 9 17 20 18 17 20 22 23 22 24 26 30 31 34 36 34 31 31 32 32 33 35 34 31 33 33 33 32 31 31 33 34 34 35 36 38
6 11 9 13 7 7 9 4 8 11 8 11 14 6 12 15 10 7 11 14 25 25 26 27 27 28 30 32 34 37 39 39 36 35 37 37 35 34 33 32 33 34 34 34 34 33 33 34 34 35 36 37 38 39
5 15 11 6 5 7 14 14 11 11 12 18 10 7 11 14 16 16 19 20 23 28 34 37 39 41 43 45 47 46 46 46 43 43 41 37 32 26 26 28 27 28 30 31 31 33 35 36 35 36 37 40 40 41
9 13 5 6 8 8 7 16 8 12 17 26 19 23 35 57 64 64 66 66 66 60 51 53 55 52 46 42 46 55 59 55 52 48 43 36 31 27 26 26 25 26 27 29 31 33 35 37 38 40 41 41 41 42
16 16 7 8 7 6 9 15 24 31 30 27 41 47 57 45 66 48 40 37 33 29 25 22 22 24 27 27 30 32 36 44 55 49 41 38 35 33 33 34 36 38 38 39 40 39 38 39 41 43 45 46 44 44
17 12 9 4 6 7 13 7 7 8 9 9 10 12 13 14 16 13 15 27 30 26 18 16 14 14 17 17 20 22 22 21 31 39 40 39 36 33 34 34 36 39 40 42 43 42 41 44 46 47 47 46 43 42
8 10 8 5 4 5 4 6 5 7 10 8 8 8 11 11 18 12 17 29 31 25 20 14 9 9 13 16 17 17 16 14 16 23 28 29 28 29 31 33 35 37 40 43 45 46 48 50 52 51 48 46 43 41
Wind_Direction_500mb
57 65 66 70 76 85 87 103 134 144 149 157 168 176 181 182 168 170 177 184 172 104 78 151 145 160 155 146 153 160 103 254 41 84 114 192 120 212 89 139 165 159 163 169 112 186 255 352 331 177 87 80 72 43
56 62 68 81 75 83 92 80 92 101 155 153 149 156 168 160 163 162 151 174 183 123 104 113 120 147 169 150 145 174 123 133 153 119 122 107 87 122 156 173 342 134 162 158 122 162 82 58 91 86 88 88 35 12
52 67 74 82 80 84 84 82 98 92 101 117 122 137 142 163 171 167 135 141 147 112 86 100 96 102 134 156 161 139 127 146 141 118 137 141 107 139 130 179 104 69 359 98 129 120 118 108 88 70 53 41 355 339
39 71 74 79 84 82 83 92 99 91 99 107 115 122 138 154 161 167 146 140 139 120 90 44 104 95 93 148 161 129 145 140 125 117 84 104 120 297 103 139 99 360 2 120 84 112 115 101 74 36 32 359 342 336
49 42 58 82 77 84 86 94 99 102 94 104 105 126 108 134 144 145 134 134 141 119 127 136 81 90 108 141 140 150 169 147 105 79 53 74 99 84 349 83 80 6 138 160 161 121 94 99 32 353 1 348 343 340
53 58 52 51 62 92 81 83 90 98 122 119 109 119 134 128 134 136 84 104 136 127 114 81 62 51 105 124 144 145 135 99 82 79 85 78 75 49 95 85 90 97 84 68 133 129 90 99 216 0 352 351 352 352
47 52 64 63 59 61 70 99 109 104 116 122 140 150 152 148 152 121 124 130 143 117 94 102 66 21 75 81 76 67 70 69 74 86 67 90 81 24 76 106 135 131 121 108 108 119 99 86 39 356 2 1 3 6
43 47 50 60 69 64 76 74 104 101 102 107 127 138 140 146 117 103 106 116 104 80 77 95 85 48 21 38 63 35 57 48 42 84 61 31 29 15 71 119 132 137 127 127 101 88 108 85 46 25 13 4 10 10
31 37 46 49 54 73 77 85 101 102 115 92 107 113 118 110 92 102 102 94 72 91 102 58 83 133 30 57 53 49 50 58 36 64 31 11 335 60 55 151 157 154 172 160 121 102 94 83 60 40 24 21 20 16
25 26 31 41 49 51 81 103 106 114 121 94 66 110 68 111 112 114 110 89 51 42 48 72 346 57 25 42 47 48 40 63 51 319 353 58 100 133 146 157 161 160 149 134 137 116 98 79 64 48 34 26 16 9
21 21 23 27 34 44 52 99 127 137 149 27 52 67 134 147 117 59 60 44 2 47 25 32 33 36 38 49 76 35 85 8 72 287 94 336 311 179 181 166 163 161 150 139 129 116 98 82 71 60 49 32 23 14
25 24 20 19 22 28 41 60 82 161 95 92 112 110 95 43 53 74 48 25 37 60 360 13 356 37 33 58 73 6 114 37 156 317 74 281 189 165 171 172 167 161 151 141 130 112 95 77 61 47 38 30 25 26
22 24 22 22 21 22 26 36 50 74 82 64 59 62 13 354 43 43 5 8 38 348 359 4 18 27 63 71 68 63 65 172 303 60 211 213 160 167 174 174 168 160 153 136 124 119 110 95 76 53 34 21 24 21
20 22 20 28 30 28 30 27 26 40 55 48 37 31 44 8 52 29 357 1 342 332 351 358 323 43 43 54 359 84 261 60 50 56 241 204 176 170 171 172 170 158 148 141 134 125 111 88 61 38 21 28 18 10
21 23 25 36 35 37 42 46 40 66 60 63 45 49 62 154 63 27 35 33 340 12 346 292 346 81 6 78 45 111 44 312 185 221 206 172 171 172 171 169 160 157 153 148 150 142 134 136 163 219 277 342 346 348
21 28 28 26 33 41 50 56 93 72 64 60 57 80 100 178 105 21 15 351 358 349 351 13 47 63 29 101 56 55 104 209 250 250 179 165 167 167 166 163 162 163 163 163 162 165 178 182 215 261 280 301 310 326
23 27 23 27 33 39 49 83 54 54 60 54 63 64 92 76 72 349 9 355 4 19 37 346 57 199 307 46 29 173 179 213 191 168 160 167 171 167 166 166 164 170 176 179 186 202 216 230 247 260 276 290 308 320
28 26 25 19 33 57 68 51 72 65 64 64 85 46 70 74 91 33 23 23 29 73 23 124 131 62 127 137 264 214 171 173 170 166 166 167 169 173 178 179 174 178 186 203 216 227 234 245 254 268 278 291 299 305
26 23 26 37 64 76 56 42 50 84 67 77 73 58 65 65 52 50 39 35 42 49 90 76 68 121 231 186 175 195 194 172 172 172 175 178 179 180 185 188 192 198 209 219 227 237 247 255 265 274 283 290 294 301
40 42 42 43 73 57 63 45 57 80 90 89 62 50 67 47 29 21 27 22 24 52 48 67 206 235 227 253 260 242 188 176 172 172 185 188 189 197 201 206 210 220 224 229 239 253 260 267 277 283 289 296 300 304
41 42 50 59 54 54 72 58 59 75 105 90 74 53 44 24 21 5 355 354 34 208 229 225 228 167 127 140 147 151 164 176 182 187 197 203 205 211 219 224 227 231 238 247 257 263 272 280 284 291 294 298 298 299
34 37 42 36 54 61 59 41 73 85 86 92 73 57 58 194 316 332 328 265 234 209 205 189 163 155 155 156 160 169 180 187 194 208 219 218 221 231 239 241 242 248 254 260 265 272 277 278 283 290 292 293 293 295
26 35 47 40 71 53 63 48 64 54 70 24 33 32 356 350 339 338 290 261 251 229 207 198 195 194 194 200 205 208 212 217 221 227 235 240 245 247 246 246 251 257 263 266 269 273 277 277 282 287 289 291 293 295
42 56 40 48 47 94 91 63 66 81 73 36 42 341 329 333 335 13 264 256 229 212 211 212 215 219 225 231 234 235 236 238 238 241 246 250 254 258 260 258 261 265 269 268 266 271 275 277 279 287 291 290 291 295
74 17 40 37 55 86 51 18 2 54 109 252 83 306 281 336 26 283 231 249 223 217 217 222 229 236 241 248 246 243 246 252 256 261 254 257 259 257 260 264 266 266 262 266 272 276 274 273 278 284 285 286 291 295
71 8 56 133 40 107 190 127 193 194 142 178 229 239 47 81 58 245 232 216 204 215 223 230 235 237 243 246 248 249 254 254 254 255 258 259 262 265 268 266 267 267 270 275 275 275 275 275 278 281 284 287 291 295
92 233 112 108 108 125 89 107 129 117 157 198 205 131 83 213 247 251 239 213 205 212 217 221 232 244 254 250 249 250 254 256 260 265 264 264 264 266 269 274 278 280 274 276 276 277 277 278 281 282 284 285 290 294
117 160 163 161 145 164 139 137 160 203 217 177 150 194 189 200 236 215 221 219 220 230 235 238 241 245 249 252 255 255 255 256 259 260 261 263 266 270 274 277 278 278 274 274 276 276 279 281 281 282 285 289 292 295
109 148 147 89 137 195 213 191 216 205 195 182 179 235 241 229 238 246 253 250 251 255 257 258 256 258 259 262 263 260 257 255 253 255 262 269 271 273 273 271 273 275 277 276 274 273 276 277 278 280 282 285 290 293
153 162 149 163 157 232 197 207 234 225 218 223 246 265 269 268 273 276 278 275 272 272 270 263 261 265 268 271 272 262 255 253 252 253 258 267 277 272 273 275 277 276 275 279 280 277 275 276 280 281 284 286 289 295
156 176 173 199 242 238 241 254 266 268 265 261 258 259 267 284 290 290 265 251 246 233 229 237 252 264 271 279 287 287 277 258 248 248 251 258 264 269 274 278 280 281 280 283 284 283 279 277 278 280 283 287 289 294
167 181 183 194 228 252 284 253 267 265 266 261 260 248 281 277 271 265 246 213 208 213 218 234 259 268 279 289 299 303 298 277 243 235 240 248 257 268 271 275 279 280 279 283 284 280 280 281 283 284 285 285 285 289
156 181 211 267 260 248 242 291 276 291 259 262 258 256 242 252 256 258 246 217 207 203 211 221 244 276 285 291 296 300 299 280 245 237 241 249 258 265 270 277 280 282 282 282 280 279 281 284 285 286 285 284 282 285
Wind_Speed_850mb
104 80 75 63 63 59 63 66 44 52 74 93 104 106 99 108 94 73 69 56 62 19 19 32 32 16 22 25 18 32 17 1 5 6 6 5 7 9 8 6 15 12 14 7 6 7 12 20 6 6 8 22 15 15
88 107 87 85 86 74 103 105 107 104 84 94 86 93 113 110 89 67 65 63 64 40 27 41 30 30 21 22 45 36 6 11 18 8 3 7 5 5 11 7 4 6 7 10 4 4 14 33 41 25 17 15 15 15
84 93 95 80 81 91 85 75 107 105 108 111 96 95 91 105 74 53 63 63 61 46 34 31 29 27 24 33 58 13 13 14 9 12 8 4 9 4 6 4 9 3 8 8 10 9 17 26 26 21 16 13 14 19
123 69 70 76 63 56 62 67 71 70 76 71 76 76 76 77 70 63 65 59 59 34 10 15 21 32 28 35 42 21 33 26 33 17 9 6 7 0 2 7 7 2 6 11 11 16 25 19 14 13 11 13 21 27
98 108 82 43 57 51 55 45 36 34 48 59 57 52 58 77 76 79 64 54 62 24 12 13 40 38 35 36 32 22 26 35 12 9 9 6 7 6 3 6 6 10 3 5 6 14 10 17 4 11 17 25 28 34
80 80 86 90 73 29 36 26 32 39 26 21 26 29 25 40 65 57 20 26 38 75 24 6 14 38 43 36 45 48 35 19 18 16 9 8 5 4 5 6 6 11 14 12 13 13 9 5 3 12 22 26 28 31
95 74 67 67 72 68 59 26 17 20 11 14 25 27 21 35 48 12 18 32 42 33 16 7 4 16 25 25 32 37 27 22 17 12 9 6 3 8 4 6 21 15 12 11 14 15 14 9 1 18 23 27 30 29
83 89 80 60 55 60 57 55 53 61 53 47 43 50 48 39 56 54 52 38 37 27 19 7 4 6 21 16 10 17 11 15 25 10 7 7 4 5 7 15 22 16 13 15 11 13 12 8 11 15 20 22 24 30
71 74 76 79 64 45 51 50 47 57 58 63 59 65 59 47 18 40 45 35 26 19 12 10 4 5 10 10 10 10 11 7 10 6 6 6 5 6 2 27 21 18 18 17 9 15 14 12 15 14 17 19 24 28
59 60 63 65 67 62 32 32 42 53 54 20 11 12 13 27 54 41 13 5 13 20 19 7 11 4 12 6 10 7 13 5 5 5 10 7 3 8 14 19 17 14 12 13 17 14 13 15 16 15 18 20 21 23
59 54 51 52 55 58 53 20 21 25 12 7 11 17 39 14 3 8 13 16 17 9 18 12 21 6 16 6 5 12 3 4 6 6 5 2 2 10 22 17 15 13 12 13 13 13 13 12 13 14 14 16 18 19
62 54 46 44 45 46 52 46 20 5 12 20 28 28 11 12 11 15 6 7 14 5 16 9 14 11 11 11 8 7 5 4 3 5 6 2 4 19 29 21 17 15 13 14 14 13 12 12 13 14 15 15 17 18
62 57 47 41 36 34 37 40 34 24 18 14 10 13 22 23 25 14 13 8 7 19 17 17 5 6 6 9 10 6 10 2 5 3 6 5 20 31 25 22 19 17 15 14 14 13 12 10 9 9 9 11 13 13
54 60 46 37 33 27 26 29 31 24 13 21 21 18 11 11 10 5 5 5 6 9 12 12 7 5 7 9 2 10 4 3 5 3 7 4 31 29 24 21 19 18 17 15 14 12 10 8 6 5 6 7 7 8
51 55 50 38 35 30 23 22 23 16 19 19 18 13 9 5 4 3 5 4 7 7 10 5 2 2 5 8 5 7 7 0 7 7 5 16 31 28 25 22 20 19 18 15 11 10 9 6 3 2 3 3 6 9
58 59 66 57 33 24 21 14 16 30 19 16 20 12 7 2 1 7 9 6 15 9 5 3 1 8 7 4 6 1 7 6 5 1 9 29 33 30 28 25 21 18 15 14 12 9 7 6 4 5 6 6 9 12
60 64 57 45 46 24 13 27 23 25 18 13 14 18 17 14 8 5 7 15 16 11 3 5 10 5 2 6 4 3 6 6 8 15 26 25 23 25 26 25 23 20 17 14 12 11 9 7 7 7 9 11 13 16
59 53 52 35 22 51 55 37 21 21 21 21 11 8 17 12 8 8 10 20 8 4 6 4 6 5 4 7 5 5 7 13 15 22 24 29 30 28 24 21 20 17 15 14 13 12 10 10 11 12 14 15 16 18
58 51 42 45 47 39 20 25 24 17 17 10 12 12 14 11 16 15 15 15 16 12 9 4 7 2 3 3 4 10 15 19 23 26 27 27 25 23 22 21 20 18 16 15 14 13 13 13 14 16 18 20 20 22
43 46 39 29 28 22 17 19 16 17 9 8 8 8 7 7 8 11 14 16 9 5 7 3 5 4 6 6 10 11 17 19 25 27 25 25 24 24 23 20 17 18 18 17 16 15 17 17 18 20 22 24 25 25
25 31 45 54 60 34 19 13 17 14 11 8 6 6 6 6 6 10 10 13 3 3 4 6 7 4 7 11 14 21 20 20 22 19 17 24 24 23 23 21 21 22 20 19 19 19 19 20 23 24 26 27 29 29
19 25 23 27 21 16 20 22 13 10 6 7 5 4 3 1 5 6 21 3 6 5 7 6 7 9 11 12 15 16 18 21 22 20 18 18 22 23 23 21 24 22 23 22 23 22 24 25 26 28 29 30 32 32
11 14 14 17 11 13 8 9 6 7 7 5 3 4 4 6 9 17 7 6 7 11 11 12 12 12 12 13 15 17 19 21 22 23 22 21 22 22 22 24 25 27 27 23 26 28 28 29 30 32 33 33 34 34
13 9 10 11 15 7 7 7 7 6 5 7 5 5 6 9 14 5 5 8 14 16 24 22 21 20 20 21 21 18 20 22 24 26 26 26 25 22 24 26 30 30 29 28 32 34 34 33 35 36 36 35 34 35
5 14 9 10 10 6 8 6 7 7 2 2 3 4 4 5 3 3 6 9 22 24 25 29 30 29 27 24 20 20 25 25 25 24 24 28 27 29 32 32 32 30 31 36 35 34 33 36 37 36 36 35 34 35
11 10 7 2 3 6 7 5 4 8 5 1 7 1 1 4 2 11 8 12 19 18 23 25 24 27 29 27 25 24 23 25 29 34 30 32 33 33 31 33 33 31 33 33 34 35 34 35 35 35 35 34 35 37
6 1 6 7 6 9 9 7 6 4 4 8 5 4 4 1 10 10 9 17 20 18 17 20 22 23 22 24 26 30 31 34 36 34 31 31 32 32 33 35 34 31 33 33 33 32 31 31 33 34 34 35 36 38
6 11 9 13 7 7 9 4 8 11 8 11 14 6 12 15 10 7 11 14 25 25 26 27 27 28 30 32 34 37 39 39 36 35 37 37 35 34 33 32 33 34 34 34 34 33 33 34 34 35 36 37 38 39
5 15 11 6 5 7 14 14 11 11 12 18 10 7 11 14 16 16 19 20 23 28 34 37 39 41 43 45 47 46 46 46 43 43 41 37 32 26 26 28 27 28 30 31 31 33 35 36 35 36 37 40 40 41
9 13 5 6 8 8 7 16 8 12 17 26 19 23 35 57 64 64 66 66 66 60 51 53 55 52 46 42 46 55 59 55 52 48 43 36 31 27 26 26 25 26 27 29 31 33 35 37 38 40 41 41 41 42
16 16 7 8 7 6 9 15 24 31 30 27 41 47 57 45 66 48 40 37 33 29 25 22 22 24 27 27 30 32 36 44 55 49 41 38 35 33 33 34 36 38 38 39 40 39 38 39 41 43 45 46 44 44
17 12 9 4 6 7 13 7 7 8 9 9 10 12 13 14 16 13 15 27 30 26 18 16 14 14 17 17 20 22 22 21 31 39 40 39 36 33 34 34 36 39 40 42 43 42 41 44 46 47 47 46 43 42
8 10 8 5 4 5 4 6 5 7 10 8 8 8 11 11 18 12 17 29 31 25 20 14 9 9 13 16 17 17 16 14 16 23 28 29 28 29 31 33 35 37 40 43 45 46 48 50 52 51 48 46 43 41
Wind_Direction_850mb
57 65 66 70 76 85 87 103 134 144 149 157 168 176 181 182 168 170 177 184 172 104 78 151 145 160 155 146 153 160 103 254 41 84 114 192 120 212 89 139 165 159 163 169 112 186 255 352 331 177 87 80 72 43
56 62 68 81 75 83 92 80 92 101 155 153 149 156 168 160 163 162 151 174 183 123 104 113 120 147 169 150 145 174 123 133 153 119 122 107 87 122 156 173 342 134 162 158 122 162 82 58 91 86 88 88 35 12
52 67 74 82 80 84 84 82 98 92 101 117 122 137 142 163 171 167 135 141 147 112 86 100 96 102 134 156 161 139 127 146 141 118 137 141 107 139 130 179 104 69 359 98 129 120 118 108 88 70 53 41 355 339
39 71 74 79 84 82 83 92 99 91 99 107 115 122 138 154 161 167 146 140 139 120 90 44 104 95 93 148 161 129 145 140 125 117 84 104 120 297 103 139 99 360 2 120 84 112 115 101 74 36 32 359 342 336
49 42 58 82 77 84 86 94 99 102 94 104 105 126 108 134 144 145 134 134 141 119 127 136 81 90 108 141 140 150 169 147 105 79 53 74 99 84 349 83 80 6 138 160 161 121 94 99 32 353 1 348 343 340
53 58 52 51 62 92 81 83 90 98 122 119 109 119 134 128 134 136 84 104 136 127 114 81 62 51 105 124 144 145 135 99 82 79 85 78 75 49 95 85 90 97 84 68 133 129 90 99 216 0 352 351 352 352
47 52 64 63 59 61 70 99 109 104 116 122 140 150 152 148 152 121 124 130 143 117 94 102 66 21 75 81 76 67 70 69 74 86 67 90 81 24 76 106 135 131 121 108 108 119 99 86 39 356 2 1 3 6
43 47 50 60 69 64 76 74 104 101 102 107 127 138 140 146 117 103 106 116 104 80 77 95 85 48 21 38 63 35 57 48 42 84 61 31 29 15 71 119 132 137 127 127 101 88 108 85 46 25 13 4 10 10
31 37 46 49 54 73 77 85 101 102 115 92 107 113 118 110 92 102 102 94 72 91 102 58 83 133 30 57 53 49 50 58 36 64 31 11 335 60 55 151 157 154 172 160 121 102 94 83 60 40 24 21 20 16
25 26 31 41 49 51 81 103 106 114 121 94 66 110 68 111 112 114 110 89 51 42 48 72 346 57 25 42 47 48 40 63 51 319 353 58 100 133 146 157 161 160 149 134 137 116 98 79 64 48 34 26 16 9
21 21 23 27 34 44 52 99 127 137 149 27 52 67 134 147 117 59 60 44 2 47 25 32 33 36 38 49 76 35 85 8 72 287 94 336 311 179 181 166 163 161 150 139 129 116 98 82 71 60 49 32 23 14
25 24 20 19 22 28 41 60 82 161 95 92 112 110 95 43 53 74 48 25 37 60 360 13 356 37 33 58 73 6 114 37 156 317 74 281 189 165 171 172 167 161 151 141 130 112 95 77 61 47 38 30 25 26
22 24 22 22 21 22 26 36 50 74 82 64 59 62 13 354 43 43 5 8 38 348 359 4 18 27 63 71 68 63 65 172 303 60 211 213 160 167 174 174 168 160 153 136 124 119 110 95 76 53 34 21 24 21
20 22 20 28 30 28 30 27 26 40 55 48 37 31 44 8 52 29 357 1 342 332 351 358 323 43 43 54 359 84 261 60 50 56 241 204 176 170 171 172 170 158 148 141 134 125 111 88 61 38 21 28 18 10
21 23 25 36 35 37 42 46 40 66 60 63 45 49 62 154 63 27 35 33 340 12 346 292 346 81 6 78 45 111 44 312 185 221 206 172 171 172 171 169 160 157 153 148 150 142 134 136 163 219 277 342 346 348
21 28 28 26 33 41 50 56 93 72 64 60 57 80 100 178 105 21 15 351 358 349 351 13 47 63 29 101 56 55 104 209 250 250 179 165 167 167 166 163 162 163 163 163 162 165 178 182 215 261 280 301 310 326
23 27 23 27 33 39 49 83 54 54 60 54 63 64 92 76 72 349 9 355 4 19 37 346 57 199 307 46 29 173 179 213 191 168 160 167 171 167 166 166 164 170 176 179 186 202 216 230 247 260 276 290 308 320
28 26 25 19 33 57 68 51 72 65 64 64 85 46 70 74 91 33 23 23 29 73 23 124 131 62 127 137 264 214 171 173 170 166 166 167 169 173 178 179 174 178 186 203 216 227 234 245 254 268 278 291 299 305
26 23 26 37 64 76 56 42 50 84 67 77 73 58 65 65 52 50 39 35 42 49 90 76 68 121 231 186 175 195 194 172 172 172 175 178 179 180 185 188 192 198 209 219 227 237 247 255 265 274 283 290 294 301
40 42 42 43 73 57 63 45 57 80 90 89 62 50 67 47 29 21 27 22 24 52 48 67 206 235 227 253 260 242 188 176 172 172 185 188 189 197 201 206 210 220 224 229 239 253 260 267 277 283 289 296 300 304
41 42 50 59 54 54 72 58 59 75 105 90 74 53 44 24 21 5 355 354 34 208 229 225 228 167 127 140 147 151 164 176 182 187 197 203 205 211 219 224 227 231 238 247 257 263 272 280 284 291 294 298 298 299
34 37 42 36 54 61 59 41 73 85 86 92 73 57 58 194 316 332 328 265 234 209 205 189 163 155 155 156 160 169 180 187 194 208 219 218 221 231 239 241 242 248 254 260 265 272 277 278 283 290 292 293 293 295
26 35 47 40 71 53 63 48 64 54 70 24 33 32 356 350 339 338 290 261 251 229 207 198 195 194 194 200 205 208 212 217 221 227 235 240 245 247 246 246 251 257 263 266 269 273 277 277 282 287 289 291 293 295
42 56 40 48 47 94 91 63 66 81 73 36 42 341 329 333 335 13 264 256 229 212 211 212 215 219 225 231 234 235 236 238 238 241 246 250 254 258 260 258 261 265 269 268 266 271 275 277 279 287 291 290 291 295
74 17 40 37 55 86 51 18 2 54 109 252 83 306 281 336 26 283 231 249 223 217 217 222 229 236 241 248 246 243 246 252 256 261 254 257 259 257 260 264 266 266 262 266 272 276 274 273 278 284 285 286 291 295
71 8 56 133 40 107 190 127 193 194 142 178 229 239 47 81 58 245 232 216 204 215 223 230 235 237 243 246 248 249 254 254 254 255 258 259 262 265 268 266 267 267 270 275 275 275 275 275 278 281 284 287 291 295
92 233 112 108 108 125 89 107 129 117 157 198 205 131 83 213 247 251 239 213 205 212 217 221 232 244 254 250 249 250 254 256 260 265 264 264 264 266 269 274 278 280 274 276 276 277 277 278 281 282 284 285 290 294
117 160 163 161 145 164 139 137 160 203 217 177 150 194 189 200 236 215 221 219 220 230 235 238 241 245 249 252 255 255 255 256 259 260 261 263 266 270 274 277 278 278 274 274 276 276 279 281 281 282 285 289 292 295
109 148 147 89 137 195 213 191 216 205 195 182 179 235 241 229 238 246 253 250 251 255 257 258 256 258 259 262 263 260 257 255 253 255 262 269 271 273 273 271 273 275 277 276 274 273 276 277 278 280 282 285 290 293
153 162 149 163 157 232 197 207 234 225 218 223 246 265 269 268 273 276 278 275 272 272 270 263 261 265 268 271 272 262 255 253 252 253 258 267 277 272 273 275 277 276 275 279 280 277 275 276 280 281 284 286 289 295
156 176 173 199 242 238 241 254 266 268 265 261 258 259 267 284 290 290 265 251 246 233 229 237 252 264 271 279 287 287 277 258 248 248 251 258 264 269 274 278 280 281 280 283 284 283 279 277 278 280 283 287 289 294
167 181 183 194 228 252 284 253 267 265 266 261 260 248 281 277 271 265 246 213 208 213 218 234 259 268 279 289 299 303 298 277 243 235 240 248 257 268 271 275 279 280 279 283 284 280 280 281 283 284 285 285 285 289
156 181 211 267 260 248 242 291 276 291 259 262 258 256 242 252 256 258 246 217 207 203 211 221 244 276 285 291 296 300 299 280 245 237 241 249 258 265 270 277 280 282 282 282 280 279 281 284 285 286 285 284 282 285